Flag for Germany Weather past 2 weeks in Dachau, Bavaria, Germany

Now
30 °F

Light snow. Partly cloudy.


Feels Like: 20 °F
Forecast: 30 / 34 °F
Wind: 14 mph from Southwest

Location: Oberpfaffenhofen

Current Time: Jan 29, 2015 at 7:46:13 AM

Latest Report: Jan 29, 2015 at 7:20 AM


Visibility: N/A

Pressure: 29.53 "Hg

Humidity: 93%

Dew point: 28 °F

Location of DachauLocation

Historic Weather in Dachau — Graph

°F

Dachau temperature yesterday

Maximum temperature yesterday: 34 °F (at 12:50 PM)
Minimum temperature yesterday: 27 °F (at 7:50 AM)
Average temperature yesterday: 31 °F

Past Weeks' High & Low Weather Summary

 TemperatureHumidityPressure
High46 °F (Jan 14, 7:20 AM)100% (Jan 17, 10:20 AM)30.33 "Hg (Jan 17, 10:20 AM)
Low23 °F (Jan 19, 6:50 PM)36% (Jan 13, 7:50 PM)29.65 "Hg (Jan 16, 4:20 PM)
Average33 °F86%29.95 "Hg
* Reported Jan 13 7:50 PM — Jan 28 6:50 PM, Dachau, Weather by CustomWeather, © 2014

Note: Actual official high and low records may vary slightly from our data, if they occured in-between our weather recording intervals... More about our weather records

Advertising

Dachau weather history for previous 24 hours

 ConditionsComfort  
Time TempWeatherWind HumidityBarometerVisibility
6:50 PM
Jan 28
27 °FClear.8 mph93%29.74 "Hg10 mi
6:20 PM27 °FClear.6 mph86%29.77 "Hg10 mi
5:50 PM30 °FClear.6 mph86%29.80 "Hg10 mi
5:20 PM32 °FClear.8 mph80%29.83 "Hg10 mi
4:50 PM30 °FSunny.10 mph80%29.83 "Hg10 mi
4:20 PM32 °FSunny.8 mph80%29.86 "Hg10 mi
3:50 PM32 °FSunny.10 mph80%29.89 "Hg10 mi
3:20 PM34 °FSunny.12 mph75%29.92 "Hg10 mi
2:50 PM34 °FSunny.9 mph75%29.92 "Hg10 mi
2:20 PM34 °FSunny.9 mph75%29.95 "Hg10 mi
1:50 PM34 °FSunny.12 mph75%29.95 "Hg10 mi
1:20 PM34 °FSunny.10 mph75%29.98 "Hg10 mi
12:50 PM34 °FSunny.10 mph75%29.98 "Hg10 mi
12:20 PM32 °FSunny.13 mph80%30.01 "Hg10 mi
11:50 AM32 °FSunny.13 mph80%30.04 "Hg10 mi
11:20 AM32 °FSunny.13 mph80%30.04 "Hg10 mi
10:50 AM30 °FSunny.12 mph86%30.07 "Hg10 mi
10:20 AM30 °FSunny.12 mph86%30.07 "Hg10 mi
9:50 AM28 °FSunny.13 mph93%30.07 "Hg10 mi
9:20 AM28 °FSunny.12 mph93%30.07 "Hg10 mi
8:50 AM28 °FSunny.10 mph93%30.09 "Hg10 mi
8:20 AM27 °FSunny.12 mph93%30.09 "Hg10 mi
7:50 AM27 °FSunny.9 mph93%30.09 "Hg10 mi
7:20 AM28 °FPartly cloudy.12 mph93%30.09 "HgN/A
Weather by CustomWeather, © 2014

See weather overviewHow to use our weather pages